Regional Weather Roundup
Issued by NWS Jackson, KY

Home | Current Version | Previous Version | Graphics & Text | Print | Product List | Glossary Off
Versions: 1 2 3 4 5 6 7 8 9 10 11 12 13 14 15 16 17 18 19 20 21 22 23 24 25 26 27 28 29 30 31 32 33 34 35 36 37 38 39 40 41 42 43 44 45 46 47 48 49 50

000
ASUS43 KJKL 062210
RWRJKL

EAST KENTUCKY HOURLY WEATHER ROUNDUP
NATIONAL WEATHER SERVICE JACKSON KY
500 PM EST FRI MAR 06 2015

NOTE: "FAIR" INDICATES FEW OR NO CLOUDS BELOW 12,000 FEET WITH
NO SIGNIFICANT WEATHER AND/OR OBSTRUCTIONS TO VISIBILITY.

* THESE REPORTS ARE NOT UNDER NWS QUALITY CONTROL AND MAY NOT
  REPORT WEATHER SUCH AS PRECIPITATION AND FOG.

KYZ079-080-083-085-087-088-110-112-115-119-120-062300
...EASTERN KENTUCKY...

CITY           SKY/WX    TMP DP  RH WIND       PRES   REMARKS
JACKSON        SUNNY     31  10  41 CALM      30.39F
LONDON         SUNNY     31  12  45 SE3       30.42F
SOMERSET*      SUNNY     30   9  40 W3        30.46F
MONTICELLO*    SUNNY     32  11  41 CALM      30.47F
MIDDLESBORO*   SUNNY     37  15  41 W6        30.41F WCI  32
HAZARD APT*    CLEAR     32  12  43 CALM      30.40F
BLACK MTN*       N/A     23  21  93 CALM        N/A
PIKEVILLE APT* SUNNY     28  12  50 CALM      30.38F
BIG SANDY*     CLEAR     31  13  47 SW3       30.40F
MOREHEAD APT*  CLEAR     25  10  54 W5        30.45F WCI  19
$$

KYZ035-036-041-042-044-050-067-078-099-062300
...CENTRAL KENTUCKY...

CITY           SKY/WX    TMP DP  RH WIND       PRES   REMARKS
MT STERLING*   SUNNY     28  12  50 W6        30.45S WCI  22
FLEMING/MASON* SUNNY     23  12  63 SW6       30.45  WCI  16
DANVILLE*      SUNNY     28  10  47 CALM      30.44F
RICHMOND*      SUNNY     27  10  50 W5        30.43F WCI  21
LEXINGTON      SUNNY     24  10  55 S8        30.43F WCI  15
FRANKFORT      SUNNY     27  14  58 S7        30.42F WCI  19
$$

KYZ091>093-OHZ055-061-077-WVZ005-015-034-035-042-062300
...SOUTHERN OHIO/WEST VIRGINIA...

CITY           SKY/WX    TMP DP  RH WIND       PRES   REMARKS
COVINGTON      MOSUNNY   27   9  46 S10G17    30.40F WCI  17
COLUMBUS       MOSUNNY   22   4  46 SW12      30.39F WCI  10
DAYTON         MOSUNNY   27   9  46 SW14G23   30.36F WCI  16
WILMINGTON     SUNNY     22   9  57 S12       30.38F WCI  10
HUNTINGTON     SUNNY     25  16  68 CALM      30.42F
CHARLESTON     MOSUNNY   28  15  58 W5        30.40F WCI  23
PINEVILLE*     SUNNY     32  18  57 MISG      30.39F
BECKLEY        SUNNY     29   9  43 SW9       30.29S WCI  20
BLUEFIELD      SUNNY     31  14  49 W10       30.28F WCI  22
$$

VAZ002-007-008-TNZ017-027-036-066-071-062300
...SOUTHWEST VIRGINIA/EAST TENNESSEE...

CITY           SKY/WX    TMP DP  RH WIND       PRES   REMARKS
WISE*          SUNNY     32  19  59 CALM      30.31F
JONESVILLE*    CLEAR     34  10  37 SW8       30.41F WCI  27
ABINGDON*      SUNNY     35  17  48 NW8       30.34F WCI  28
BRISTOL        MOSUNNY   37  20  50 W7        30.38F WCI  32
KNOXVILLE      MOSUNNY   38  19  46 W6        30.42F WCI  33
OAK RIDGE      SUNNY     41  14  33 VRB5      30.43F
CROSSVILLE     SUNNY     35  16  45 W7        30.38F WCI  29
NASHVILLE      SUNNY     37  16  42 NW3       30.48F
$$

...KEY TO REMARKS...
VSB - VISIBILITY IN MILES
WCI - WIND CHILL INDEX
HX  - HEAT INDEX

$$


USA.gov is the U.S. government's official web portal to all federal, state and local government web resources and services.